Date String (YYYY-MM-DD hh:mm:ss) UTC,Instrument flags,absolute air pressure of the measurement (hPa),sample flow rate (lpm),inlet stack bypass flow (lpm),air temperature of the measurement (°C),ambient temperature measured by the external sensor (°C),aerosol sample conditioner tube jacket temperature (°C),OPC LED temperature (°C),internal box temperature (°C),relative humidity of the measurement (%),span deviation,mass concentration of particles derived from Lorenz-Mie calculation of OPC scattering (μg/m³),mass concentration of particles derived from Lorenz-Mie calculation of OPC scattering (μg/m³),mass concentration of particles derived from Lorenz-Mie calculation of OPC scattering (μg/m³)
DateTimeUTC,F1_M11,P_M11,Q1_M11,Q2_M11,T1_M11,T2_M11,T3_M11,T4_M11,T5_M11,U1_M11,ZSPAN_M11,X2_M11,X0_M11,X1_M11
2023-08-06 11:00:00,SystemResetWarning,0837.8,5.01,000.00,029.8,025.2,000.0,038.2,030.9,30.3,0000.0,0003.99,0006.08,0003.77
2023-08-06 11:01:00,SystemResetWarning,0837.8,5.01,000.00,029.6,025.5,000.0,038.2,030.7,30.5,0000.0,0003.97,0006.01,0003.77
2023-08-06 11:02:00,SystemResetWarning,0837.8,5.00,000.00,029.5,025.9,000.0,038.2,030.7,30.6,0000.0,0003.95,0005.95,0003.77
2023-08-06 11:03:00,SystemResetWarning,0837.8,5.00,000.00,029.5,026.3,000.0,038.2,030.8,30.8,0000.0,0003.93,0005.18,0003.76
2023-08-06 11:04:00,SystemResetWarning,0837.8,5.00,000.00,029.5,026.7,000.0,038.2,030.9,30.9,0000.0,0003.91,0005.01,0003.75
2023-08-06 11:05:00,SystemResetWarning,0837.7,5.00,000.00,029.5,027.0,000.0,038.2,030.9,31.0,0000.0,0003.90,0004.95,0003.76
2023-08-06 11:06:00,SystemResetWarning,0837.8,4.99,000.00,029.5,027.3,000.0,038.2,031.0,31.0,0000.0,0003.87,0004.84,0003.76
2023-08-06 11:07:00,SystemResetWarning,0837.9,5.00,000.00,029.5,027.5,000.0,038.2,031.0,31.0,0000.0,0003.89,0005.57,0003.76
2023-08-06 11:08:00,SystemResetWarning,0837.8,5.00,000.00,029.5,027.7,000.0,038.2,031.0,31.1,0000.0,0003.90,0006.54,0003.76
2023-08-06 11:09:00,SystemResetWarning,0837.8,5.00,000.00,029.5,027.8,000.0,038.2,031.1,30.9,0000.0,0003.89,0007.12,0003.76
2023-08-06 11:10:00,SystemResetWarning,0837.7,5.01,000.00,029.5,028.0,000.0,038.2,031.1,30.8,0000.0,0003.89,0007.14,0003.76
2023-08-06 11:11:00,SystemResetWarning,0837.8,5.00,000.00,029.6,028.1,000.0,038.2,031.1,30.9,0000.0,0003.91,0007.03,0003.76
2023-08-06 11:12:00,SystemResetWarning,0837.8,4.99,000.00,029.6,028.2,000.0,038.2,031.2,30.9,0000.0,0003.94,0007.20,0003.76
2023-08-06 11:13:00,SystemResetWarning,0837.8,4.99,000.00,029.6,028.2,000.0,038.2,031.2,30.9,0000.0,0003.96,0007.34,0003.77
2023-08-06 11:14:00,SystemResetWarning,0837.8,5.00,000.00,029.6,028.3,000.0,038.2,031.2,30.9,0000.0,0003.98,0007.43,0003.77
2023-08-06 11:15:00,SystemResetWarning,0837.9,5.01,000.00,029.6,028.4,000.0,038.2,031.3,30.9,0000.0,0004.00,0007.48,0003.78
2023-08-06 11:16:00,SystemResetWarning,0837.9,5.01,000.00,029.7,028.4,000.0,038.2,031.3,30.8,0000.0,0004.00,0007.50,0003.76
2023-08-06 11:17:00,SystemResetWarning,0837.9,5.00,000.00,029.7,028.5,000.0,038.2,031.3,30.9,0000.0,0004.01,0007.54,0003.75
2023-08-06 11:18:00,SystemResetWarning,0837.9,5.00,000.00,029.7,028.5,000.0,038.2,031.3,30.8,0000.0,0004.00,0007.35,0003.74
2023-08-06 11:19:00,SystemResetWarning,0837.9,5.00,000.00,029.7,028.5,000.0,038.3,031.3,30.8,0000.0,0004.00,0007.06,0003.74
2023-08-06 11:20:00,SystemResetWarning,0838.0,4.99,000.00,029.7,028.6,000.0,038.3,031.4,30.8,0000.0,0003.98,0006.00,0003.71
2023-08-06 11:21:00,SystemResetWarning,0838.0,5.00,000.00,029.8,028.6,000.0,038.3,031.4,30.6,0000.0,0003.97,0005.82,0003.70
2023-08-06 11:22:00,SystemResetWarning,0838.0,4.99,000.00,029.8,028.6,000.0,038.3,031.4,30.7,0000.0,0003.93,0005.70,0003.68
2023-08-06 11:23:00,SystemResetWarning,0837.9,5.00,000.00,029.8,028.6,000.0,038.3,031.4,30.6,0000.0,0003.93,0005.74,0003.68
2023-08-06 11:24:00,SystemResetWarning,0837.9,5.00,000.00,029.8,028.6,000.0,038.4,031.4,30.7,0000.0,0003.88,0005.74,0003.67
2023-08-06 11:25:00,SystemResetWarning,0837.9,5.00,000.00,029.8,028.7,000.0,038.4,031.4,30.6,0000.0,0003.87,0005.62,0003.65
2023-08-06 11:26:00,SystemResetWarning,0838.0,5.00,000.00,029.9,028.7,000.0,038.4,031.5,30.6,0000.0,0003.86,0005.65,0003.64
2023-08-06 11:27:00,SystemResetWarning,0838.1,5.00,000.00,029.9,028.7,000.0,038.4,031.5,30.7,0000.0,0003.84,0005.57,0003.63
2023-08-06 11:28:00,SystemResetWarning,0838.0,5.00,000.00,029.9,028.7,000.0,038.4,031.5,30.6,0000.0,0003.84,0005.57,0003.63
2023-08-06 11:29:00,SystemResetWarning,0838.1,5.00,000.00,029.9,028.8,000.0,038.4,031.5,30.7,0000.0,0003.82,0005.36,0003.63
2023-08-06 11:30:00,SystemResetWarning,0838.2,5.00,000.00,029.9,028.8,000.0,038.4,031.5,30.8,0000.0,0003.81,0005.13,0003.62
2023-08-06 11:31:00,SystemResetWarning,0838.2,5.01,000.00,029.9,028.8,000.0,038.5,031.5,30.6,0000.0,0003.82,0005.32,0003.61
2023-08-06 11:32:00,SystemResetWarning,0838.1,5.00,000.00,029.9,028.5,000.0,038.5,031.5,30.6,0000.0,0003.82,0005.47,0003.61
2023-08-06 11:33:00,SystemResetWarning,0838.2,4.98,000.00,029.9,026.7,000.0,038.3,031.3,30.5,0000.0,0003.83,0005.61,0003.61
2023-08-06 11:34:00,SystemResetWarning,0838.2,5.02,000.00,029.8,025.5,000.0,038.2,031.1,30.6,0000.0,0003.83,0006.08,0003.59
2023-08-06 11:35:00,SystemResetWarning,0838.1,5.01,000.00,029.7,025.3,000.0,038.2,030.8,30.8,0000.0,0003.84,0005.87,0003.58
2023-08-06 11:36:00,SystemResetWarning,0838.0,5.00,000.00,029.6,025.7,000.0,038.2,030.7,30.9,0000.0,0003.86,0006.01,0003.58
2023-08-06 11:37:00,SystemResetWarning,0837.9,5.00,000.00,029.5,026.1,000.0,038.2,030.8,31.0,0000.0,0003.84,0005.95,0003.57
2023-08-06 11:38:00,SystemResetWarning,0838.0,5.00,000.00,029.5,026.5,000.0,038.2,030.9,31.2,0000.0,0003.84,0006.03,0003.57
2023-08-06 11:39:00,SystemResetWarning,0838.0,5.00,000.00,029.5,026.8,000.0,038.2,030.9,31.3,0000.0,0003.82,0005.99,0003.57
2023-08-06 11:40:00,SystemResetWarning,0838.0,5.00,000.00,029.5,027.1,000.0,038.2,031.0,31.2,0000.0,0003.81,0005.96,0003.56
2023-08-06 11:41:00,SystemResetWarning,0838.0,5.00,000.00,029.5,027.4,000.0,038.2,031.0,31.3,0000.0,0003.80,0005.98,0003.54
2023-08-06 11:42:00,SystemResetWarning,0838.0,5.00,000.00,029.5,027.6,000.0,038.2,031.0,31.4,0000.0,0003.77,0005.74,0003.54
2023-08-06 11:43:00,SystemResetWarning,0838.0,5.00,000.00,029.5,027.8,000.0,038.2,031.1,31.5,0000.0,0003.76,0005.58,0003.54
2023-08-06 11:44:00,SystemResetWarning,0838.0,5.01,000.00,029.5,027.9,000.0,038.2,031.1,31.6,0000.0,0003.74,0005.43,0003.53
2023-08-06 11:45:00,SystemResetWarning,0837.9,5.00,000.00,029.5,028.0,000.0,038.2,031.1,31.5,0000.0,0003.71,0004.81,0003.52
2023-08-06 11:46:00,SystemResetWarning,0838.0,4.99,000.00,029.6,028.1,000.0,038.2,031.2,31.5,0000.0,0003.70,0004.90,0003.52
2023-08-06 11:47:00,SystemResetWarning,0838.0,4.99,000.00,029.6,028.2,000.0,038.2,031.2,31.3,0000.0,0003.71,0004.96,0003.53
2023-08-06 11:48:00,SystemResetWarning,0838.0,5.01,000.00,029.6,028.3,000.0,038.2,031.2,31.2,0000.0,0003.73,0005.21,0003.53
2023-08-06 11:49:00,SystemResetWarning,0838.0,5.01,000.00,029.6,028.4,000.0,038.2,031.3,31.3,0000.0,0003.74,0005.26,0003.54
2023-08-06 11:50:00,SystemResetWarning,0838.1,4.99,000.00,029.7,028.4,000.0,038.2,031.3,31.3,0000.0,0003.74,0005.28,0003.53
2023-08-06 11:51:00,SystemResetWarning,0838.2,5.00,000.00,029.7,028.5,000.0,038.2,031.3,31.3,0000.0,0003.74,0005.28,0003.53
2023-08-06 11:52:00,SystemResetWarning,0838.2,5.00,000.00,029.7,028.5,000.0,038.3,031.3,31.2,0000.0,0003.76,0005.29,0003.53
2023-08-06 11:53:00,SystemResetWarning,0838.2,4.99,000.00,029.7,028.5,000.0,038.3,031.4,31.1,0000.0,0003.78,0005.25,0003.54
2023-08-06 11:54:00,SystemResetWarning,0838.2,5.00,000.00,029.7,028.6,000.0,038.3,031.4,31.4,0000.0,0003.80,0005.35,0003.53
2023-08-06 11:55:00,SystemResetWarning,0838.2,5.00,000.00,029.8,028.6,000.0,038.3,031.4,31.2,0000.0,0003.82,0005.45,0003.52
2023-08-06 11:56:00,SystemResetWarning,0838.2,5.00,000.00,029.8,028.6,000.0,038.3,031.4,31.1,0000.0,0003.81,0005.49,0003.51
2023-08-06 11:57:00,SystemResetWarning,0838.1,5.00,000.00,029.8,028.7,000.0,038.4,031.4,31.1,0000.0,0003.80,0005.48,0003.49
2023-08-06 11:58:00,SystemResetWarning,0838.2,5.00,000.00,029.8,028.7,000.0,038.4,031.4,30.9,0000.0,0003.78,0005.35,0003.48
2023-08-06 11:59:00,SystemResetWarning,0838.2,5.01,000.00,029.8,028.7,000.0,038.4,031.5,31.0,0000.0,0003.75,0005.09,0003.47
